{"data":{"norad_id":50844,"intl_designator":"2022-001AT","name":"STARLINK-3326","alt_names":[],"object_type":"PAYLOAD","status":"ACTIVE","operator":null,"country":"US","launch_date":"2022-01-06","launch_site_code":"AFETR","launch_vehicle":null,"mission":null,"orbit_class":"UNKNOWN","rcs_meters":null,"size_class":null,"mass_kg":null,"dimensions":null,"purposes":["comms"],"wikipedia_slug":null,"has_3d_model":false,"image_url":null,"decayed_at":null,"tle_current":{"epoch":"2026-05-24T10:38:51.372960Z","epoch_age_seconds":122393,"freshness":"FRESH","line1":"1 50844U 22001AT  26144.44365015  .00003061  00000+0  21044-3 0  9994","line2":"2 50844  53.2129 199.0512 0001583  85.5157 274.6016 15.08819688241704","mean_motion":15.08819688,"eccentricity":0.0001583,"inclination_deg":53.2129,"raan_deg":199.0512,"arg_perigee_deg":85.5157,"mean_anomaly_deg":274.6016,"bstar":0.00021044,"rev_number":24170,"period_min":95.438839475165,"perigee_km":538.71036502483,"apogee_km":540.90058561251,"semimajor_km":6917.9424753187,"source":"CELESTRAK","updated_at":"2026-05-25T13:38:16.882417Z"}}}